Regional Weather Roundup
Issued by NWS Newport/Morehead, NC

Current Version | Previous Version | Graphics & Text | Print | Product List | Glossary Off
Versions: 1 2 3 4 5 6 7 8 9 10 11 12 13 14 15 16 17 18 19 20 21 22 23 24 25 26 27 28 29 30 31 32 33 34 35 36 37 38 39 40 41 42 43 44 45 46 47 48 49 50

000
ASUS42 KMHX 221822
RWRMHX
WEATHER ROUNDUP FOR EASTERN NORTH CAROLINA
NATIONAL WEATHER SERVICE NEWPORT/MOREHEAD CITY NC
200 PM EDT WED OCT 22 2014

NOTE: "FAIR" INDICATES FEW OR NO CLOUDS BELOW 12,000 FEET
WITH NO SIGNIFICANT WEATHER AND/OR OBSTRUCTIONS TO VISIBILITY

NCZ015>017-031-032-045>047-102-103-221900-
NORTH COAST

CITY           SKY/WX    TMP DP  RH WIND       PRES   REMARKS
EDENTON        CLOUDY    57  50  77 NW12G18   29.87S
ELIZABETH CITY CLOUDY    59  51  75 NW17G29   29.84F
KITTY HAWK     CLOUDY    58  51  77 W14G23    29.80F
MANTEO         CLOUDY    58  51  78 NW15G25   29.82F

$$

NCZ045>047-081-094-103-104-221900-
CENTRAL COAST

CITY           SKY/WX    TMP DP  RH WIND       PRES   REMARKS
FRISCO         CLOUDY    59  50  72 NW17G30   29.85F
SWANQUARTER      N/A     59 N/A N/A NW16G29   29.85

$$

NCZ095-097-098-100-101-221900-
SOUTHERN COAST

CITY           SKY/WX    TMP DP  RH WIND       PRES   REMARKS
BEAUFORT       CLOUDY    63  48  58 NW18      29.90F
CEDAR ISLAND     N/A     61 N/A N/A W14G26    29.91
JACKSONVILLE   MOSUNNY   65  45  48 NW17G25   29.92F
PINEY ISLAND   MOCLDY    65  48  54 W20G25    29.89S
WILMINGTON     MOSUNNY   67  45  45 NW12      29.94F


$$

NCZ011>013-027>030-043-044-078>080-089-090>093-098-221900-
COASTAL PLAIN

CITY           SKY/WX    TMP DP  RH WIND       PRES   REMARKS
AHOSKIE        CLOUDY    56  48  73 NW12      29.91S
CLINTON        MOSUNNY   66  46  48 NW10G16   29.96F
ELIZABETHTOWN  SUNNY     66  44  43 NW6       29.96F
GOLDSBORO      PTSUNNY   64  49  58 N14G24    29.93F
GREENVILLE     PTSUNNY   61  46  59 N12G22    29.94S
HAVELOCK       PTSUNNY   63  47  55 NW16G28   29.92F
KENANSVILLE    CLOUDY    64  43  47 NW12G18   29.96S
KINSTON        MOSUNNY   63  46  55 NW14G25   29.94F
NEW BERN       CLOUDY    66  47  50 NW16G25   29.92F
RICHLANDS      CLOUDY    64  43  45 NW8G22    29.94S
ROCKY MOUNT    CLOUDY    62  46  55 N16G26    29.95F
WASHINGTON     PTSUNNY   59  48  67 NW12      29.91F
WHITEVILLE     SUNNY     66  43  42 W8        29.96F

$$

AMZ130-135-150-152-154-156-158-170-250-252-270-ANZ085-086-088-633-658-670-221900-
MARINE OBSERVATIONS

STATION/POSITION TIME  TEMP    WIND        PRES    WAVE   SWELL
                       AIR SEA DIR/SP/G            HT/PER HT/PER
                 (UTC) (F)     (DEG/KT/KT) (MB)    (FT/S) (FT/S)
CHESAPEAKE LIGHT 1800   60     330/ 27/ 29 1008.1
64 E VA BEACH    1800   60 69  310/ 16/ 21 1005.6    6/ 7   2/11
DUCK             1800   58 68  290/ 20/ 24 1008.4
2 E DUCK         1800                        N/A     3/10   2/11
10 NE DUCK       1800      70                N/A     4/ 5
OREGON INLET     1800   58 67  280/ 17/ 25 1009.2
13E OREGON INLT  1800      73                N/A     4/ 5
HATTERAS CG      1800   60 69  300/ 24/ 26 1011.1
DIAMOND BUOY     1800   62     300/ 21/ 27 1010.4    5/ 4   2/10
17 S OCRACOKE    NOT AVBL
CAPE LOOKOUT     1800   63     300/ 15/ 19 1012.2
BEAUFORT LAB     1800   62 69  320/  9/ 14 1011.7
30 SE NEW RIVER  1800   63 76  310/ 17/ 21 1012.6    3/ 4   2/ 9
5 SE WRIGHTSVLE  1800   61 73  310/ 14/ 14   N/A
225 S CAPE HAT   1744   75 79  300/ 19/ 23 1011.3    4/ 6   2/ 9
41 SE CHARLESTON 1800   63 79  350/ 12/ 17 1015.6    4/ 6   3/ 6

$$



USA.gov is the U.S. government's official web portal to all federal, state and local government web resources and services.